Temp
86 85 86 86 85 85 84 84 84 85 85 84 84 84 84 84 83 82 81 80 80 79 79 80 80 80 80 79 79 79 80 80 79 79 79 78 79 78 78 77 77 76 77 76 76 76 77 77 77 77 77 76 75 75 75 74 73 74 73 72 72 71 71
84 85 86 86 86 85 85 84 85 86 85 85 84 84 85 84 83 82 81 81 80 80 80 80 80 80 80 80 80 80 79 79 80 79 79 78 79 79 79 78 78 77 77 77 77 77 77 77 78 77 77 76 75 74 75 74 73 73 73 72 71 70 71
84 85 86 86 85 85 85 85 85 86 86 86 85 85 84 83 83 82 81 81 80 80 80 80 80 80 80 80 80 79 80 80 79 79 78 79 78 79 79 79 78 78 78 78 78 77 78 77 77 77 77 76 76 74 75 74 72 72 72 72 72 71 70
84 85 85 86 86 86 86 86 85 86 87 87 86 85 85 84 84 83 83 82 81 80 79 80 80 80 80 80 79 79 79 80 80 80 80 80 79 79 79 78 78 78 77 77 78 78 78 78 77 77 78 76 75 74 75 75 73 72 72 72 72 71 71
85 86 86 85 85 85 85 86 86 86 87 88 87 85 85 85 84 84 83 83 83 81 81 81 82 81 81 81 80 80 80 80 80 80 80 80 80 80 79 79 79 78 78 79 78 78 77 77 77 77 77 76 75 74 74 75 73 72 71 71 71 71 71
86 85 85 85 86 86 86 87 87 87 87 87 86 85 86 86 85 85 84 83 83 83 82 81 81 81 80 81 81 80 80 80 80 80 80 80 80 79 79 79 79 79 79 78 79 78 78 77 77 77 76 76 76 75 75 74 74 73 71 71 71 71 70
87 86 86 86 86 86 86 87 88 88 88 88 88 86 86 86 85 85 85 83 83 82 82 81 82 81 81 81 81 80 80 80 80 80 81 80 80 80 80 80 79 79 80 79 78 78 78 77 77 77 77 76 76 75 75 74 73 73 72 71 70 70 71
88 87 87 87 88 88 88 87 88 88 87 87 87 86 85 86 86 85 85 85 84 84 83 82 82 81 81 81 81 80 80 80 81 81 81 80 80 80 80 80 80 80 79 79 79 79 78 77 78 78 77 76 75 75 75 74 74 73 72 71 70 70 71
88 88 88 89 89 90 89 87 87 86 85 85 85 84 85 85 86 86 85 85 85 84 83 84 83 83 82 81 81 80 81 81 80 80 80 80 80 80 81 80 80 80 79 79 79 79 79 78 78 77 77 76 75 75 75 74 74 74 72 72 71 71 71
87 86 87 89 90 91 89 88 86 84 83 83 83 83 84 85 86 86 86 86 85 84 84 84 84 83 82 81 81 81 81 80 80 80 80 80 81 81 81 81 81 80 80 80 80 79 79 79 78 77 76 76 75 75 75 74 74 73 73 72 72 71 71
87 86 87 88 88 88 88 87 83 82 83 82 83 84 84 84 85 86 86 86 85 85 85 85 85 84 83 82 81 81 80 80 81 80 80 80 81 81 82 82 82 81 80 80 79 79 78 78 78 77 76 76 75 75 74 74 74 73 73 73 72 72 72
85 85 85 86 86 86 85 83 82 81 81 82 83 84 83 83 85 86 86 86 87 86 85 85 85 85 83 83 82 80 80 80 81 80 80 81 81 81 82 82 82 81 81 81 80 79 79 78 78 77 76 76 76 75 75 74 74 74 73 73 73 72 72
84 84 84 84 84 85 83 81 81 81 81 83 84 84 84 84 85 86 85 86 87 87 86 85 85 84 83 83 82 81 80 81 80 81 81 81 81 82 81 82 82 82 81 81 81 79 78 78 77 78 77 76 76 75 75 74 74 73 73 73 72 72 71
84 85 85 84 84 82 81 80 81 81 81 83 84 84 84 85 86 85 85 86 87 87 87 86 85 84 83 82 81 81 81 81 81 81 81 81 81 81 81 81 81 81 81 81 80 80 79 78 77 78 77 77 76 76 75 74 74 73 73 73 73 72 71
80 81 82 82 81 81 81 80 79 80 81 82 84 83 84 84 85 85 86 87 87 88 87 86 85 84 83 82 81 81 81 81 81 81 81 81 81 80 80 80 81 81 81 80 80 80 80 79 78 77 76 76 76 76 75 74 74 74 74 73 72 72 71
82 83 83 81 80 81 80 81 80 80 81 81 83 83 83 83 84 85 85 86 87 87 88 86 85 83 83 82 82 82 81 81 81 81 81 80 80 80 80 80 80 80 80 79 80 79 79 78 77 77 76 76 75 75 75 74 74 71 66 69 73 72 72
81 82 83 82 80 80 80 81 81 80 79 80 81 83 83 83 84 85 87 87 88 87 88 87 84 84 83 82 82 82 81 81 81 81 80 80 80 80 80 80 80 79 79 79 79 79 78 77 77 77 77 76 76 75 75 75 74 66 64 66 69 72 72
79 80 81 82 81 81 79 80 79 78 79 81 82 83 84 83 84 85 85 87 87 88 88 87 85 84 83 83 82 82 81 81 81 80 80 80 80 80 80 80 79 79 79 78 78 78 78 77 77 77 77 76 76 75 75 75 69 64 64 66 66 70 73
79 80 82 81 79 79 81 82 81 80 81 82 83 84 85 85 85 84 85 86 87 88 88 87 86 84 83 83 82 82 81 81 80 80 80 80 80 80 80 79 79 78 78 78 78 78 77 77 77 76 77 76 75 75 76 76 68 63 63 65 65 67 71
79 81 81 82 82 82 82 82 82 82 82 82 84 86 87 87 86 86 88 88 87 87 86 86 86 85 83 83 82 82 82 81 81 80 80 80 80 80 79 79 78 79 79 78 77 77 77 77 76 77 76 76 76 75 76 76 65 62 62 63 64 66 69
79 80 82 82 81 83 82 82 82 82 81 83 85 85 86 86 87 88 88 87 86 86 85 85 85 84 83 82 83 82 82 81 81 80 80 80 80 80 79 79 79 79 79 78 77 77 76 77 76 76 76 76 76 76 75 76 61 61 61 62 62 64 68
77 79 78 83 84 83 83 84 84 84 83 84 84 85 87 87 88 88 88 88 86 86 85 85 84 84 83 82 83 83 82 82 81 80 80 80 80 79 79 79 79 78 78 78 78 78 77 77 77 76 76 76 76 75 74 72 59 61 60 61 61 63 71
77 80 83 81 81 84 86 86 86 87 85 85 85 86 87 89 89 88 88 87 86 85 85 85 84 84 83 83 83 83 83 82 81 80 80 80 79 79 79 79 78 79 78 77 77 77 77 77 77 77 76 75 75 74 73 67 60 59 59 59 60 63 72
79 77 77 81 86 85 82 84 86 87 87 86 86 87 88 89 88 86 85 85 85 85 84 84 84 84 84 84 84 84 84 83 82 81 80 80 80 79 80 80 80 79 78 78 77 77 77 77 76 75 75 75 74 74 71 68 61 57 57 58 59 64 72
77 78 75 77 80 83 84 84 84 87 85 84 84 86 87 87 86 85 84 84 84 84 84 84 85 85 84 84 85 84 84 84 83 82 81 80 80 81 80 80 79 79 78 79 78 77 76 75 74 73 73 74 74 69 71 70 62 56 57 57 58 65 73
71 72 76 75 75 77 81 82 82 82 83 84 85 86 86 86 85 84 84 84 85 85 84 85 86 87 87 86 85 85 84 84 82 82 82 81 81 81 81 81 80 78 78 78 78 76 74 74 73 72 72 72 72 71 73 71 67 60 56 57 57 60 72
70 70 72 74 76 77 75 79 82 84 84 84 84 84 85 84 84 83 83 84 84 84 86 87 88 87 86 86 85 85 84 83 83 82 82 82 82 82 81 80 79 77 77 76 75 74 73 73 73 72 72 73 73 73 73 73 70 63 55 55 56 58 63
69 70 72 72 74 74 75 77 79 82 85 85 85 85 85 84 83 83 83 83 83 85 88 88 88 87 86 85 85 85 84 83 83 83 82 82 81 80 79 78 78 77 77 76 74 73 72 72 72 72 72 72 73 73 73 72 70 68 57 55 55 55 59
66 67 67 68 70 72 72 74 77 80 81 83 84 86 86 86 83 83 82 83 84 87 88 88 87 86 85 84 83 82 82 82 81 81 81 81 81 80 77 77 76 76 75 74 73 72 71 71 71 71 71 71 72 72 72 71 70 64 63 55 53 53 56
66 66 68 69 70 70 70 70 72 74 75 76 76 77 77 79 81 81 82 83 86 87 87 86 84 81 82 81 81 80 81 81 81 81 81 80 79 79 76 75 76 75 74 74 73 72 71 71 71 71 71 71 70 70 71 70 68 62 61 59 54 53 54
65 65 66 67 68 69 69 69 69 72 70 71 71 71 71 73 75 75 73 74 76 76 76 76 77 78 77 77 78 78 79 79 79 79 79 79 79 76 75 75 74 73 74 74 73 72 71 70 71 71 71 70 70 69 67 67 65 63 61 59 55 54 53
65 66 67 67 67 68 68 69 69 69 69 68 70 71 73 72 72 70 69 72 74 77 77 76 76 76 76 76 76 76 77 77 77 78 78 78 78 77 76 75 74 74 73 74 73 72 71 71 71 71 70 70 69 68 67 66 64 60 59 59 58 56 54
64 65 66 66 67 67 66 66 67 67 67 67 68 68 71 73 73 72 71 72 73 76 77 76 74 74 74 74 74 75 76 76 75 76 76 76 77 76 76 75 74 72 70 70 69 70 70 71 70 69 68 68 68 68 67 65 62 60 58 57 57 57 57
64 64 65 66 67 66 65 66 65 66 67 67 68 69 69 69 68 69 71 73 75 75 74 73 73 72 72 72 72 72 73 73 74 74 74 74 74 73 70 68 69 68 67 68 70 70 70 70 69 68 68 67 67 66 65 63 62 60 59 58 58 58 59
63 63 65 65 65 66 65 65 65 65 66 67 68 68 68 68 68 70 70 72 73 74 73 71 70 71 71 70 70 70 71 72 72 71 68 62 58 58 63 68 70 68 66 65 70 73 72 70 70 70 71 70 67 66 64 63 62 62 57 61 56 58 59
62 63 63 65 66 65 66 66 66 66 66 67 67 67 67 68 68 69 71 72 73 73 71 70 69 70 70 70 70 70 70 70 70 68 67 64 61 58 54 49 46 53 66 65 61 65 64 64 70 71 71 69 68 68 67 64 67 58 52 50 50 50 53
62 63 63 65 65 65 66 66 67 67 67 67 68 68 68 68 68 69 69 70 71 71 70 70 68 68 68 68 69 68 69 69 68 67 65 64 64 61 59 57 53 44 43 50 50 49 46 48 52 57 62 69 69 65 61 62 55 49 49 48 48 48 48
63 63 64 65 65 65 65 66 66 66 66 67 68 68 68 68 68 69 69 69 69 69 68 68 67 67 67 68 68 66 65 65 64 64 63 62 62 63 62 59 57 53 45 42 45 45 44 44 47 51 56 57 62 62 62 53 48 49 47 47 46 47 47
MSLP
1001.43 1001.91 1001.99 1002.03 1002.47 1002.75 1003.15 1003.35 1003.47 1003.71 1003.91 1004.23 1004.51 1004.75 1005.19 1005.59 1005.91 1006.39 1006.91 1007.35 1007.83 1008.39 1008.67 1008.91 1009.23 1009.55 1009.91 1010.23 1010.59 1010.91 1011.11 1011.27 1011.39 1011.67 1011.99 1012.19 1012.31 1012.59 1012.91 1013.07 1013.31 1013.47 1013.63 1013.99 1014.11 1014.19 1014.23 1014.39 1014.71 1014.91 1015.11 1015.31 1015.59 1015.75 1015.87 1016.03 1016.27 1016.39 1016.55 1016.75 1016.95 1017.19 1017.31
1001.51 1001.51 1001.59 1001.67 1001.91 1002.15 1002.23 1002.39 1002.63 1002.87 1003.15 1003.47 1003.83 1004.23 1004.59 1004.99 1005.35 1005.87 1006.23 1006.63 1007.11 1007.55 1008.07 1008.47 1008.91 1009.19 1009.39 1009.75 1010.07 1010.47 1010.87 1010.95 1011.03 1011.23 1011.51 1011.83 1011.91 1012.11 1012.23 1012.51 1012.71 1012.99 1013.19 1013.31 1013.51 1013.71 1013.95 1014.19 1014.35 1014.63 1014.87 1015.07 1015.35 1015.47 1015.67 1015.87 1016.03 1016.19 1016.43 1016.63 1016.83 1017.07 1017.23
1000.95 1000.95 1001.11 1001.23 1001.43 1001.59 1001.71 1001.87 1002.07 1002.11 1002.39 1002.79 1003.23 1003.71 1004.03 1004.23 1004.47 1004.95 1005.67 1006.35 1006.91 1007.27 1007.63 1007.99 1008.31 1008.71 1009.03 1009.35 1009.79 1010.07 1010.31 1010.63 1010.87 1011.07 1011.35 1011.47 1011.67 1011.83 1011.91 1012.03 1012.23 1012.55 1012.71 1012.87 1013.15 1013.47 1013.59 1013.95 1014.07 1014.27 1014.55 1014.91 1015.11 1015.35 1015.47 1015.67 1015.83 1015.95 1016.15 1016.35 1016.59 1016.83 1017.07
1000.47 1000.43 1000.39 1000.27 1000.35 1000.47 1000.63 1000.95 1001.35 1001.51 1001.59 1001.91 1002.35 1002.67 1003.11 1003.55 1003.79 1004.31 1004.91 1005.47 1006.27 1006.87 1007.39 1007.59 1007.87 1008.27 1008.59 1009.03 1009.43 1009.71 1009.99 1010.15 1010.35 1010.59 1010.79 1010.95 1011.23 1011.39 1011.67 1011.79 1011.99 1012.19 1012.55 1012.75 1012.79 1013.03 1013.31 1013.59 1013.91 1014.11 1014.31 1014.67 1014.91 1015.11 1015.27 1015.43 1015.63 1015.79 1015.91 1016.15 1016.39 1016.51 1016.67
999.63 999.47 999.71 1000.11 1000.23 1000.35 1000.47 1000.67 1000.87 1000.99 1001.19 1001.15 1001.39 1001.71 1002.19 1002.75 1003.43 1004.11 1004.63 1004.95 1005.39 1005.95 1006.19 1006.59 1007.03 1007.51 1007.91 1008.23 1008.71 1009.03 1009.31 1009.63 1009.95 1010.15 1010.39 1010.51 1010.75 1011.03 1011.27 1011.43 1011.63 1011.91 1012.03 1012.23 1012.47 1012.79 1013.07 1013.39 1013.67 1013.91 1014.15 1014.39 1014.71 1014.95 1015.11 1015.23 1015.43 1015.59 1015.83 1015.91 1016.23 1016.35 1016.51
999.23 999.35 999.43 999.51 999.63 999.71 999.79 999.87 999.99 1000.19 1000.39 1000.83 1001.27 1001.79 1002.15 1002.63 1003.11 1003.75 1004.03 1004.55 1004.99 1005.27 1005.63 1006.19 1006.67 1007.03 1007.55 1007.75 1008.11 1008.43 1008.75 1009.03 1009.31 1009.63 1009.91 1010.15 1010.47 1010.75 1010.83 1010.91 1011.19 1011.47 1011.75 1011.91 1012.07 1012.35 1012.59 1012.99 1013.31 1013.59 1013.91 1014.15 1014.39 1014.71 1014.91 1015.07 1015.19 1015.39 1015.59 1015.79 1015.95 1016.15 1016.39
998.43 998.55 998.83 998.87 998.87 999.03 999.19 999.27 999.35 999.43 999.63 999.99 1000.43 1001.03 1001.71 1002.35 1002.79 1003.07 1003.59 1004.11 1004.39 1004.99 1005.43 1005.91 1006.15 1006.51 1006.83 1007.15 1007.51 1007.87 1008.31 1008.67 1008.99 1009.31 1009.51 1009.83 1009.95 1010.23 1010.35 1010.55 1010.71 1010.91 1011.07 1011.39 1011.79 1011.95 1012.35 1012.67 1012.91 1013.19 1013.47 1013.83 1014.11 1014.39 1014.63 1014.83 1014.99 1015.11 1015.31 1015.59 1015.83 1015.99 1016.11
997.31 997.79 997.71 997.87 998.11 998.23 998.51 998.63 998.75 999.03 999.43 999.87 1000.59 1001.19 1001.63 1001.75 1002.23 1002.87 1003.31 1003.43 1003.83 1004.35 1004.83 1005.19 1005.63 1005.91 1006.27 1006.55 1006.83 1007.27 1007.67 1008.07 1008.43 1008.79 1009.11 1009.47 1009.63 1009.83 1009.95 1010.15 1010.31 1010.43 1010.75 1011.11 1011.27 1011.51 1011.91 1012.19 1012.43 1012.71 1013.07 1013.51 1013.79 1014.03 1014.19 1014.35 1014.55 1014.79 1015.03 1015.35 1015.67 1015.87 1015.95
996.47 996.51 996.83 997.03 997.23 997.43 997.67 998.03 998.35 998.75 999.19 999.67 1000.03 1000.47 1000.79 1001.35 1001.83 1002.15 1002.39 1002.87 1003.27 1003.67 1004.07 1004.31 1004.83 1005.19 1005.59 1006.03 1006.47 1006.75 1007.03 1007.51 1007.99 1008.35 1008.79 1009.07 1009.19 1009.39 1009.51 1009.71 1009.87 1009.99 1010.39 1010.67 1010.95 1011.11 1011.35 1011.67 1011.95 1012.31 1012.71 1013.11 1013.35 1013.59 1013.83 1013.99 1014.23 1014.39 1014.67 1014.99 1015.27 1015.51 1015.67
996.35 996.59 996.35 996.15 996.23 996.51 996.91 997.39 997.83 998.59 999.35 999.75 1000.03 1000.47 1000.83 1000.99 1001.19 1001.51 1001.99 1002.35 1002.75 1003.31 1003.63 1004.15 1004.47 1004.79 1005.27 1005.67 1005.99 1006.23 1006.71 1007.07 1007.35 1007.91 1008.31 1008.67 1008.63 1008.87 1008.95 1009.23 1009.47 1009.55 1009.91 1010.15 1010.47 1010.87 1010.95 1011.19 1011.55 1011.95 1012.31 1012.63 1012.91 1013.11 1013.35 1013.67 1013.87 1014.11 1014.35 1014.59 1014.87 1015.15 1015.31
995.79 995.99 996.11 996.23 996.43 996.55 996.79 997.39 998.31 998.75 998.95 999.19 999.43 999.71 1000.11 1000.47 1000.83 1001.23 1001.59 1001.87 1002.35 1002.67 1003.07 1003.55 1003.87 1004.39 1004.79 1005.11 1005.63 1006.03 1006.43 1006.67 1006.87 1007.35 1007.75 1007.99 1008.11 1008.31 1008.51 1008.75 1008.99 1009.15 1009.43 1009.79 1010.11 1010.31 1010.63 1010.95 1011.11 1011.55 1011.87 1012.11 1012.31 1012.67 1012.99 1013.23 1013.55 1013.87 1014.11 1014.31 1014.47 1014.71 1014.91
995.59 995.75 995.95 995.95 996.11 996.39 996.91 997.39 997.75 998.19 998.59 998.91 999.19 999.47 999.83 1000.15 1000.39 1000.67 1000.99 1001.31 1001.51 1002.27 1002.79 1003.15 1003.35 1003.75 1004.27 1004.67 1005.19 1005.67 1005.99 1006.15 1006.39 1006.71 1006.99 1007.31 1007.55 1007.75 1008.03 1008.23 1008.47 1008.71 1008.95 1009.19 1009.63 1009.91 1010.15 1010.47 1010.71 1010.91 1011.23 1011.47 1011.83 1012.15 1012.51 1012.83 1013.15 1013.43 1013.67 1013.95 1014.19 1014.47 1014.67
995.51 995.63 995.79 995.99 996.11 996.19 996.51 997.11 997.51 997.63 997.95 998.27 998.59 998.91 999.27 999.55 999.87 1000.15 1000.51 1000.87 1001.15 1001.51 1002.07 1002.55 1002.99 1003.39 1003.83 1004.15 1004.59 1005.11 1005.39 1005.59 1005.75 1005.87 1006.23 1006.55 1006.79 1007.11 1007.55 1007.79 1007.91 1008.19 1008.47 1008.59 1008.99 1009.43 1009.83 1009.99 1010.23 1010.39 1010.75 1011.11 1011.51 1011.87 1012.15 1012.55 1012.83 1013.11 1013.35 1013.63 1013.87 1014.19 1014.51
995.31 995.31 995.19 995.27 995.71 996.27 996.75 996.87 996.99 997.23 997.43 997.79 998.15 998.35 998.75 998.95 999.15 999.47 999.83 1000.27 1000.51 1000.91 1001.55 1001.99 1002.43 1002.87 1003.27 1003.71 1004.15 1004.43 1004.67 1004.83 1004.99 1005.23 1005.43 1005.71 1006.15 1006.67 1006.99 1007.31 1007.51 1007.67 1007.83 1008.19 1008.67 1008.95 1009.19 1009.55 1009.83 1010.07 1010.51 1010.91 1011.19 1011.43 1011.79 1012.15 1012.51 1012.79 1013.03 1013.27 1013.55 1013.91 1014.19
995.79 995.95 995.79 995.95 995.91 995.99 996.31 996.71 996.95 997.03 997.15 997.31 997.51 998.03 998.35 998.71 998.95 999.15 999.39 999.59 1000.03 1000.47 1000.87 1001.11 1001.79 1002.31 1002.79 1003.23 1003.59 1003.71 1003.87 1004.23 1004.51 1004.67 1004.95 1005.23 1005.79 1006.31 1006.67 1006.87 1007.03 1007.27 1007.55 1007.83 1008.11 1008.31 1008.63 1009.07 1009.59 1010.15 1010.55 1010.75 1010.99 1011.27 1011.47 1011.83 1012.07 1012.27 1012.59 1012.99 1013.35 1013.55 1013.95
994.71 995.07 995.47 995.91 995.99 995.95 995.95 996.07 996.31 996.51 996.83 997.11 997.35 997.71 998.11 998.47 998.67 998.75 998.99 999.23 999.47 999.83 1000.03 1000.63 1001.23 1001.75 1002.19 1002.59 1002.67 1002.95 1003.35 1003.71 1004.03 1004.35 1004.55 1004.95 1005.35 1005.71 1006.07 1006.43 1006.71 1007.03 1007.31 1007.51 1007.71 1008.07 1008.47 1008.99 1009.43 1009.87 1010.23 1010.55 1010.79 1010.95 1011.19 1011.39 1011.51 1011.71 1012.03 1012.31 1012.71 1013.23 1013.59
994.15 994.43 994.59 994.83 995.27 995.67 995.75 995.83 995.95 996.31 996.71 996.91 997.07 997.27 997.59 997.83 997.95 998.07 998.31 998.63 998.99 999.31 999.43 999.91 1000.67 1001.15 1001.47 1001.79 1001.91 1002.39 1002.83 1003.35 1003.67 1003.95 1004.31 1004.31 1004.71 1005.19 1005.71 1006.07 1006.39 1006.75 1007.07 1007.31 1007.59 1007.99 1008.39 1008.79 1009.31 1009.55 1009.75 1010.07 1010.35 1010.67 1010.79 1010.91 1011.07 1011.39 1011.75 1012.11 1012.43 1012.83 1013.23
994.31 994.23 994.31 994.39 994.59 994.91 995.43 995.67 995.99 996.39 996.51 996.55 996.55 996.71 997.03 997.47 997.67 997.99 998.23 998.23 998.47 998.55 998.87 999.51 1000.07 1000.55 1000.83 1000.99 1001.51 1001.99 1002.43 1002.71 1003.11 1003.55 1003.75 1004.03 1004.43 1004.71 1005.11 1005.67 1006.19 1006.59 1006.87 1007.19 1007.55 1007.83 1008.15 1008.59 1008.75 1008.99 1009.27 1009.59 1009.91 1010.19 1010.35 1010.55 1010.63 1011.03 1011.47 1011.91 1012.23 1012.47 1012.79
994.03 993.99 993.83 993.95 994.35 994.75 994.83 995.11 995.35 995.55 995.71 995.83 995.99 996.23 996.23 996.39 997.07 997.51 997.47 997.71 997.59 997.95 998.71 999.11 999.43 999.87 1000.31 1000.59 1001.03 1001.47 1001.83 1002.23 1002.71 1002.95 1003.31 1003.55 1003.75 1004.27 1004.91 1005.51 1005.99 1006.35 1006.75 1007.07 1007.15 1007.51 1007.91 1008.07 1008.35 1008.67 1008.83 1009.23 1009.59 1009.83 1009.95 1010.11 1010.27 1010.79 1011.27 1011.67 1012.03 1012.27 1012.55
993.87 993.67 993.83 993.87 993.95 994.03 994.19 994.43 994.67 994.83 994.91 995.03 995.07 995.07 995.07 995.47 995.99 996.15 996.23 996.55 997.11 997.91 998.27 998.67 998.99 999.35 999.75 1000.15 1000.51 1000.83 1001.23 1001.71 1002.11 1002.51 1002.71 1002.95 1003.51 1004.07 1004.63 1005.19 1005.63 1005.91 1006.23 1006.63 1006.99 1007.31 1007.55 1007.79 1008.11 1008.31 1008.63 1008.79 1009.11 1009.39 1009.55 1009.75 1010.07 1010.59 1011.07 1011.47 1011.79 1012.07 1012.31
993.35 993.55 993.31 993.51 993.79 993.71 993.79 993.83 993.99 994.31 994.67 994.75 994.67 994.75 995.11 995.55 995.55 995.71 996.15 996.47 997.19 997.39 997.79 998.07 998.43 998.83 999.23 999.71 999.91 1000.31 1000.79 1001.23 1001.59 1001.95 1002.27 1002.71 1003.19 1003.75 1004.31 1004.79 1005.27 1005.71 1005.99 1006.31 1006.67 1006.99 1007.27 1007.51 1007.83 1008.03 1008.23 1008.47 1008.67 1009.03 1009.35 1009.43 1009.83 1010.35 1010.75 1011.11 1011.47 1011.75 1011.95
993.67 993.43 993.63 992.91 992.71 992.99 993.15 993.19 993.35 993.67 993.87 993.63 993.99 994.35 994.59 994.87 994.87 995.47 995.91 996.07 996.67 996.99 997.23 997.51 997.95 998.27 998.63 999.11 999.39 999.71 999.99 1000.47 1000.95 1001.35 1001.83 1002.35 1002.87 1003.43 1003.95 1004.39 1004.79 1005.23 1005.55 1005.99 1006.35 1006.59 1006.87 1007.19 1007.39 1007.67 1007.87 1008.03 1008.35 1008.79 1009.15 1009.23 1009.63 1010.03 1010.43 1010.83 1011.19 1011.47 1011.71
993.43 992.83 992.23 992.27 992.59 992.35 991.79 991.91 992.39 992.51 992.67 993.11 993.43 993.87 994.15 993.95 994.27 994.83 995.35 995.95 996.27 996.59 996.91 997.23 997.71 997.91 998.11 998.39 998.55 998.87 999.19 999.63 1000.23 1000.83 1001.35 1001.83 1002.51 1002.99 1003.43 1003.87 1004.35 1004.75 1005.07 1005.79 1006.11 1006.51 1006.71 1006.83 1006.91 1007.03 1007.43 1007.83 1008.11 1008.51 1008.83 1009.27 1009.51 1009.79 1010.15 1010.55 1010.79 1011.31 1011.43
993.31 992.91 992.39 991.87 991.23 991.59 992.19 992.19 991.91 991.75 992.07 992.55 992.95 993.15 993.27 993.51 994.07 994.67 995.27 995.63 995.83 996.27 996.71 997.03 997.23 997.19 997.43 997.63 997.75 997.99 998.35 998.87 999.47 1000.19 1000.79 1001.39 1001.91 1002.31 1002.67 1003.11 1003.63 1004.15 1004.47 1005.19 1005.71 1006.07 1006.11 1006.23 1006.63 1006.83 1007.03 1007.43 1007.83 1008.03 1008.67 1009.11 1009.43 1009.63 1009.95 1010.23 1010.59 1010.75 1011.03
994.07 993.35 992.83 992.19 992.23 992.23 991.87 991.99 992.11 992.07 992.23 992.63 993.23 992.95 992.83 993.19 993.67 994.43 995.03 995.19 995.51 995.87 996.35 996.55 996.47 996.59 996.83 996.83 996.79 997.11 997.59 998.19 998.91 999.55 1000.23 1000.79 1001.15 1001.59 1002.27 1002.67 1003.07 1003.47 1003.99 1004.43 1004.87 1005.27 1005.59 1005.95 1006.39 1006.79 1006.99 1007.19 1007.51 1007.87 1008.31 1008.83 1009.35 1009.55 1009.63 1009.95 1010.27 1010.51 1010.63
994.99 994.27 993.47 993.03 992.35 991.95 991.95 991.83 992.03 992.43 992.59 992.59 992.35 992.03 992.47 992.99 993.59 994.07 994.39 994.63 994.83 995.47 995.87 995.79 995.59 995.47 995.55 995.79 996.15 996.63 997.23 997.79 998.47 998.99 999.55 1000.11 1000.59 1001.07 1001.55 1001.95 1002.63 1003.23 1003.67 1004.03 1004.35 1004.95 1005.39 1005.79 1006.19 1006.67 1007.03 1007.15 1007.47 1007.87 1008.03 1008.51 1008.95 1009.31 1009.35 1009.55 1009.91 1010.07 1010.23
995.11 994.75 994.35 993.75 993.31 992.67 992.07 992.03 992.39 992.31 992.15 992.07 991.79 991.99 992.27 992.75 993.55 994.15 994.11 994.15 994.51 994.79 994.51 994.27 994.35 994.67 995.03 995.39 996.03 996.59 997.07 997.43 997.91 998.47 998.87 999.31 999.99 1000.55 1001.23 1001.67 1002.27 1002.75 1003.27 1003.79 1004.27 1004.83 1005.35 1005.71 1006.07 1006.47 1006.83 1006.99 1007.19 1007.51 1007.75 1007.91 1008.47 1009.03 1009.35 1009.55 1009.71 1009.95 1010.15
995.03 994.23 993.87 993.71 993.43 993.27 992.95 992.39 992.35 992.27 991.91 991.51 991.43 991.47 991.79 992.35 993.23 993.59 993.83 994.07 994.19 993.59 992.95 993.19 993.59 993.95 994.39 995.03 995.63 996.03 996.51 997.03 997.43 997.91 998.55 999.15 999.83 1000.63 1001.11 1001.35 1001.67 1002.19 1002.71 1003.27 1003.95 1004.59 1005.11 1005.47 1005.83 1006.23 1006.63 1006.87 1007.03 1007.27 1007.55 1007.75 1007.95 1008.55 1009.19 1009.35 1009.67 1009.99 1010.15
996.03 995.63 994.99 994.35 993.43 993.31 993.79 993.31 992.55 992.27 992.31 992.07 991.91 991.79 991.63 991.79 992.55 992.99 993.15 993.59 993.11 992.43 992.43 992.75 993.15 993.59 994.15 994.75 995.31 995.75 996.15 996.55 997.11 997.75 998.31 998.91 999.31 999.95 1000.79 1001.19 1001.59 1002.07 1002.43 1003.07 1003.71 1004.31 1004.87 1005.27 1005.63 1006.07 1006.59 1006.91 1007.15 1007.23 1007.43 1007.67 1007.91 1008.03 1008.63 1009.27 1009.71 1010.11 1010.31
996.07 995.63 995.19 994.87 994.63 994.23 994.03 993.51 992.91 992.55 992.07 991.75 991.83 991.99 992.35 992.83 993.11 992.83 992.83 992.75 992.11 992.11 992.15 992.59 993.23 993.87 994.51 994.91 995.19 995.55 995.95 996.31 996.75 997.27 997.83 998.43 999.03 999.63 1000.39 1000.99 1001.27 1001.67 1002.11 1002.59 1003.27 1004.07 1004.71 1005.19 1005.51 1005.95 1006.47 1006.91 1007.27 1007.39 1007.51 1007.75 1008.15 1008.55 1008.71 1009.35 1009.91 1010.19 1010.31
996.47 996.39 996.07 995.67 995.07 994.59 994.27 994.15 993.55 993.35 992.47 991.91 991.63 991.99 992.35 992.43 992.99 993.47 993.91 993.75 993.39 993.63 993.87 993.87 993.95 994.23 994.67 995.07 995.39 995.67 995.91 996.23 996.59 996.95 997.39 997.91 998.43 999.35 1000.07 1000.71 1000.95 1001.67 1002.03 1002.43 1003.15 1003.71 1004.47 1005.03 1005.31 1005.79 1006.23 1006.71 1007.15 1007.59 1007.95 1008.27 1008.59 1008.99 1009.43 1009.75 1009.99 1010.19 1010.39
996.31 996.07 995.91 995.67 995.27 994.75 994.55 994.23 993.83 993.63 993.79 993.55 992.95 992.15 991.79 992.23 992.67 993.47 993.87 993.59 993.03 993.03 993.43 994.11 994.67 995.11 995.23 995.43 995.67 995.91 996.07 996.51 996.83 996.95 997.23 997.71 998.07 998.47 999.07 999.79 1000.55 1001.23 1001.87 1002.31 1002.91 1003.47 1004.15 1004.87 1005.27 1005.75 1006.15 1006.75 1007.23 1007.71 1007.99 1008.23 1008.47 1008.91 1009.55 1010.31 1010.71 1010.75 1010.71
996.99 996.51 996.11 995.79 995.51 995.03 994.71 994.55 994.19 994.15 994.03 993.71 993.19 992.71 992.11 991.51 991.39 991.67 992.07 992.63 992.91 992.83 992.91 993.51 994.67 995.63 996.07 996.27 996.27 996.35 996.47 996.83 997.23 997.63 997.87 998.07 998.31 998.71 999.31 999.91 1000.59 1001.31 1002.15 1002.87 1003.67 1004.23 1004.47 1004.79 1005.31 1005.87 1006.35 1006.79 1007.19 1007.43 1007.67 1007.95 1008.15 1008.63 1009.31 1009.99 1010.51 1010.83 1010.91
997.19 996.67 996.15 995.83 995.39 995.07 994.83 994.59 994.55 994.35 994.15 994.03 993.67 993.07 992.43 992.11 992.15 992.19 991.95 991.75 991.83 992.31 992.87 993.39 993.83 994.75 995.99 996.83 996.91 996.79 996.75 996.99 997.23 997.63 998.39 998.87 999.15 999.83 1000.67 1001.43 1001.59 1002.11 1002.79 1003.71 1004.23 1004.75 1004.75 1004.83 1005.27 1005.67 1006.07 1006.51 1006.75 1007.15 1007.47 1007.75 1007.95 1008.27 1008.87 1009.71 1010.07 1010.39 1010.51
997.19 996.91 996.47 996.07 995.59 995.15 994.99 994.87 994.79 994.71 994.47 994.27 993.95 993.63 993.15 992.71 992.31 991.91 991.63 991.63 991.79 992.11 992.67 993.35 993.83 994.27 994.87 995.75 996.91 997.67 997.35 996.95 996.91 997.19 997.87 998.91 1000.03 1000.71 1001.07 1001.27 1002.27 1003.03 1003.27 1003.03 1003.07 1003.23 1003.63 1004.23 1004.75 1004.99 1005.27 1005.67 1006.47 1007.15 1008.07 1008.55 1008.63 1008.31 1008.23 1008.71 1009.15 1009.55 1010.15
997.19 996.95 996.67 996.23 995.83 995.47 995.11 994.87 994.83 994.83 994.71 994.55 994.19 993.91 993.59 993.15 992.75 992.51 992.15 991.75 991.63 991.87 992.71 993.47 994.15 994.75 995.19 995.47 995.95 996.63 997.35 997.47 997.39 997.47 997.87 998.59 999.59 1000.67 1002.15 1002.99 1002.87 1002.55 1002.59 1003.15 1003.35 1003.27 1003.35 1003.59 1004.23 1004.51 1004.83 1005.43 1005.79 1005.99 1006.91 1007.55 1007.39 1007.47 1008.15 1008.47 1008.75 1008.99 1009.19
997.31 996.99 996.75 996.35 996.15 995.91 995.67 995.35 994.99 994.87 994.75 994.55 994.35 994.15 993.75 993.47 993.23 993.03 992.99 992.99 993.07 993.03 993.35 993.91 994.87 995.71 996.47 996.75 996.27 995.91 996.15 996.59 997.15 997.27 997.75 998.31 998.95 999.63 1000.67 1002.11 1003.27 1003.79 1003.87 1003.67 1003.75 1003.75 1003.87 1004.03 1004.31 1004.55 1004.83 1005.03 1005.79 1006.15 1006.15 1006.51 1007.03 1007.59 1007.99 1008.39 1008.67 1009.07 1009.43
997.31 997.07 996.79 996.47 996.43 996.27 995.99 995.71 995.35 995.19 995.11 994.83 994.71 994.47 994.07 993.79 993.59 993.39 993.27 993.31 993.71 994.35 994.99 995.15 995.19 995.87 996.23 996.79 997.59 996.59 996.59 997.03 997.83 998.35 998.31 998.75 999.31 999.71 1000.19 1001.31 1002.63 1003.99 1004.91 1005.03 1004.43 1004.35 1004.43 1004.55 1004.75 1004.95 1005.15 1005.31 1005.59 1006.07 1006.75 1007.11 1007.15 1007.39 1007.87 1008.23 1008.75 1009.11 1009.43
Wind_Speed
18 19 19 19 18 19 19 20 21 20 20 20 20 21 20 18 18 17 17 19 21 19 18 18 18 16 18 16 15 14 13 13 12 12 12 11 10 10 10 9 10 10 9 10 9 10 9 9 10 10 9 9 9 9 9 7 7 7 7 7 7 6 7
17 18 18 18 19 19 21 21 21 20 20 19 19 20 19 20 18 18 18 19 20 21 20 18 18 17 17 16 14 14 15 15 14 11 11 10 10 10 11 11 11 11 10 10 9 8 9 10 10 10 10 9 9 9 9 8 8 8 8 8 8 7 7
17 18 18 18 18 18 20 20 20 20 20 19 19 19 20 20 20 21 18 18 19 18 17 18 18 17 16 16 15 16 15 14 13 13 13 12 12 12 11 11 11 10 10 10 9 9 9 10 10 10 10 10 9 9 9 8 7 8 9 9 8 8 8
16 18 19 21 21 21 22 21 22 21 19 20 21 22 22 21 20 18 18 19 20 19 19 18 18 17 16 16 16 15 16 15 15 14 13 13 12 11 11 10 10 9 9 10 10 10 9 10 11 10 11 10 9 9 8 9 8 7 8 9 8 9 9
18 19 19 19 19 19 18 19 20 20 20 21 22 22 22 20 19 16 16 18 20 22 22 21 18 17 15 16 14 14 16 16 15 14 13 12 11 11 12 13 11 11 11 11 10 10 10 11 11 11 10 10 10 9 10 9 8 8 8 9 8 8 8
18 17 17 18 18 18 19 20 21 22 22 21 20 19 18 18 17 19 19 19 19 19 19 19 18 17 17 17 15 15 15 15 15 14 14 13 12 12 13 13 12 12 12 13 11 11 12 12 12 12 12 10 11 11 10 10 9 9 9 8 8 8 8
18 18 16 17 18 18 19 20 20 20 19 19 18 17 16 17 19 19 18 19 20 21 20 19 19 18 17 17 17 17 17 16 15 15 13 13 14 14 13 12 12 12 12 11 12 12 12 12 13 13 12 12 12 12 12 11 10 9 9 9 8 8 8
20 18 19 19 18 18 19 19 19 17 16 14 14 16 18 18 18 18 19 19 20 19 19 20 19 18 18 17 17 19 18 17 15 15 13 14 14 15 13 12 12 12 11 13 12 12 13 14 13 13 13 12 12 13 13 12 12 11 9 10 10 9 7
20 21 21 20 20 19 19 18 17 17 19 18 19 19 20 18 18 19 21 20 19 20 20 20 19 18 17 17 17 19 17 16 15 15 15 16 15 16 15 13 13 12 13 13 12 12 13 13 14 14 14 13 13 13 13 13 12 11 11 11 11 11 10
20 18 20 21 20 19 18 17 16 14 14 15 15 16 18 18 19 18 17 18 18 20 19 18 18 17 17 17 18 18 17 17 16 17 16 17 16 17 16 14 13 13 13 13 12 13 12 13 14 14 14 15 14 14 14 13 12 11 11 12 12 11 12
18 19 19 19 19 18 17 14 12 14 16 17 17 17 17 18 18 17 18 17 18 18 18 18 17 17 18 18 19 18 17 18 17 17 18 18 16 17 16 15 14 13 14 13 13 13 12 12 13 14 15 15 16 15 14 14 13 13 12 11 11 12 11
17 18 19 20 19 18 17 14 14 14 14 14 15 15 16 16 17 17 17 19 17 17 17 18 17 18 18 18 18 17 19 18 17 18 19 19 18 18 16 15 15 14 13 14 15 13 13 14 13 14 16 15 15 15 14 13 13 13 13 13 11 11 10
14 15 16 17 17 16 13 12 16 18 17 17 17 16 16 17 18 18 18 18 17 17 17 17 17 17 18 18 18 17 18 18 18 18 18 18 18 16 15 15 16 15 15 15 15 15 14 14 15 14 14 15 13 14 14 13 13 13 13 12 12 11 11
15 16 17 16 15 15 16 16 16 17 18 18 17 17 16 16 18 19 19 19 18 17 17 15 17 18 18 18 18 18 19 18 18 18 18 17 17 16 15 15 15 15 14 13 14 15 15 15 16 14 12 13 13 13 12 13 12 12 12 12 12 11 11
12 12 10 10 13 14 15 15 14 16 16 17 18 18 18 16 16 16 16 17 17 17 18 18 18 18 18 18 18 18 18 17 16 16 17 17 16 16 15 16 15 14 13 13 14 13 14 13 12 12 12 11 12 12 12 12 13 12 12 12 12 11 11
15 14 13 11 10 12 14 15 15 16 16 15 17 17 16 15 16 17 18 18 18 18 18 17 18 18 18 19 19 17 17 17 15 16 16 16 17 17 16 15 15 14 14 14 14 13 11 10 11 12 12 12 12 12 11 11 10 13 19 16 13 11 10
14 16 17 16 14 13 12 13 14 13 14 15 16 17 16 17 17 17 18 17 18 19 18 18 18 18 19 20 18 17 16 16 16 16 17 18 16 15 16 16 14 13 13 13 12 12 11 11 12 12 12 13 13 13 12 11 10 17 18 18 18 13 11
10 12 14 16 16 14 13 13 12 13 15 16 17 17 16 15 15 15 17 17 18 18 17 18 18 19 19 19 17 16 17 17 17 17 18 16 17 17 16 14 13 13 13 12 12 11 10 12 14 14 13 12 13 13 12 11 14 18 18 19 19 17 12
14 13 14 14 13 13 15 16 15 16 17 16 17 17 17 17 16 17 17 18 19 16 16 18 19 18 18 17 17 17 17 16 17 18 17 17 17 15 13 14 14 13 12 13 12 11 13 14 13 13 13 13 13 13 12 12 15 17 19 19 19 19 15
9 12 10 11 12 15 15 12 12 14 16 16 17 19 19 18 19 19 19 19 16 16 17 18 18 17 17 17 17 17 17 17 17 18 18 17 15 14 14 14 15 13 11 10 10 11 12 12 14 13 13 13 13 13 12 12 13 19 19 20 20 19 16
12 11 16 14 13 14 13 15 15 15 14 13 15 14 13 14 15 16 16 15 15 17 18 18 18 17 17 17 17 17 16 17 17 18 17 15 15 14 14 14 13 13 12 11 11 12 13 13 13 12 12 13 12 12 11 10 15 19 20 20 21 20 18
1 1 5 10 18 16 16 17 17 17 16 14 14 14 15 17 17 17 17 16 17 17 18 18 18 18 17 17 17 18 18 18 18 17 16 16 15 15 15 14 14 14 12 10 10 9 9 9 10 13 13 12 12 11 11 8 18 20 21 21 20 21 14
6 7 6 6 6 9 15 16 15 16 16 16 16 16 17 18 18 18 17 17 17 17 17 17 17 17 17 18 19 19 19 18 18 17 16 16 16 16 16 15 14 13 11 11 10 10 11 12 12 11 11 11 11 11 10 7 16 20 21 21 22 17 12
5 5 7 5 9 8 6 8 10 13 13 15 16 17 16 16 15 16 16 17 17 17 16 17 18 18 18 18 19 20 19 18 18 17 17 16 17 17 16 14 12 13 11 13 12 12 12 11 9 9 10 11 11 11 10 9 14 20 20 21 21 18 14
7 6 5 6 6 7 11 11 11 12 11 11 12 14 15 16 17 17 17 16 16 16 17 18 19 18 19 19 19 19 18 17 17 16 17 17 17 16 16 15 15 12 12 12 12 12 9 9 9 7 7 9 10 12 12 9 12 18 21 21 21 18 11
10 11 8 4 3 6 7 8 9 8 9 12 16 17 16 14 15 17 17 16 15 16 17 18 19 19 19 19 18 16 16 14 16 16 17 17 16 15 15 13 11 11 12 11 10 9 9 8 8 10 8 8 9 10 10 11 11 16 20 21 21 21 13
5 4 6 9 8 8 4 6 9 13 14 13 13 10 10 12 14 15 15 16 16 19 21 21 20 19 18 17 15 14 15 14 15 17 17 16 15 14 12 11 12 12 12 11 9 9 9 10 9 9 8 8 9 10 9 10 12 14 18 19 20 20 15
12 12 10 7 9 9 9 5 6 10 13 14 13 12 12 13 14 15 15 15 17 20 20 19 19 18 18 16 15 15 15 15 14 14 13 13 12 13 13 11 12 12 13 11 11 12 11 10 9 9 9 8 9 8 9 10 15 12 16 18 18 18 16
9 10 11 12 13 11 10 9 6 9 8 6 6 7 11 17 17 16 16 17 20 19 17 16 17 16 15 13 13 13 14 14 15 13 11 12 15 16 14 12 12 12 12 13 12 13 12 11 10 10 9 8 6 7 8 9 10 17 14 15 15 15 15
8 10 11 9 6 8 10 9 8 3 2 3 3 2 3 3 8 12 16 19 17 14 14 12 8 7 8 9 11 11 11 13 14 14 13 15 15 14 14 13 13 13 12 13 13 12 12 10 10 9 10 10 8 6 6 6 5 8 13 13 14 14 15
8 7 8 10 10 9 7 7 9 7 1 3 8 7 5 3 3 1 1 3 9 9 7 2 4 6 8 8 8 10 10 11 13 14 15 15 16 16 14 14 14 13 11 13 12 12 11 10 10 10 10 9 9 7 5 5 4 3 3 9 14 14 14
12 10 8 7 9 11 8 7 6 7 7 7 6 3 10 8 8 5 0 2 3 7 7 4 4 5 6 7 8 10 11 12 12 13 15 16 15 16 16 17 15 13 12 12 11 11 12 11 10 9 9 8 7 7 7 6 6 6 5 3 4 6 10
10 10 11 12 9 8 8 7 6 6 6 6 5 3 2 9 11 11 9 7 3 5 10 11 9 6 4 6 7 8 10 12 11 10 11 12 11 11 11 10 10 11 9 8 8 7 9 10 10 9 9 9 9 9 8 8 7 8 7 7 7 7 7
10 10 8 8 8 7 5 6 5 4 4 5 6 2 1 1 3 4 5 7 12 12 12 12 14 14 10 7 6 9 11 12 16 16 10 8 7 8 9 9 9 11 12 12 12 11 9 10 11 11 11 11 11 10 9 8 7 7 8 8 8 8 8
9 9 8 10 9 8 5 3 4 4 3 3 4 3 3 2 2 6 10 10 10 11 12 12 14 14 16 15 12 9 10 13 14 14 14 13 13 11 9 12 12 10 7 2 7 10 12 11 10 11 10 10 10 9 6 5 6 8 10 12 13 13 10
7 8 9 8 8 8 5 3 3 3 3 3 2 1 2 3 4 4 5 9 12 14 15 14 14 15 16 16 15 15 13 12 12 12 14 15 15 15 12 15 13 6 8 6 4 8 12 11 10 10 10 10 9 10 12 11 11 13 15 16 17 18 19
8 9 9 10 9 10 8 5 3 3 3 2 0 2 3 6 6 8 7 8 7 8 12 13 11 10 7 2 10 15 14 14 11 13 12 13 14 14 15 11 11 17 17 11 8 10 13 13 13 13 10 11 8 6 13 15 13 17 17 16 16 16 15
7 6 7 8 9 9 8 8 6 5 7 7 4 2 5 7 8 10 10 12 13 11 9 9 12 11 8 5 5 6 10 8 9 7 9 11 10 11 13 14 12 10 14 14 13 15 15 14 12 9 10 11 11 10 2 6 15 19 17 17 16 16 15
Wind_Direction
188 190 192 190 190 189 189 191 192 194 194 193 194 194 191 189 188 184 184 184 186 185 185 185 187 186 187 188 191 194 199 199 198 197 196 197 197 192 189 189 190 190 187 189 191 191 190 179 182 184 182 179 177 188 191 186 185 183 178 179 170 175 183
190 192 193 192 191 192 192 192 193 196 195 194 193 192 191 190 188 187 187 185 186 185 183 185 185 189 189 190 189 193 197 201 200 198 196 198 199 197 192 190 191 190 188 189 186 185 177 182 182 183 183 181 184 185 188 184 181 177 176 178 172 176 180
191 191 192 193 193 193 195 194 195 196 195 193 192 190 192 192 189 188 183 184 186 185 183 184 186 186 189 189 190 195 197 200 202 199 196 198 199 195 194 193 193 189 188 185 183 180 179 178 185 184 181 184 187 186 190 185 180 173 176 175 176 177 182
191 190 192 194 194 195 194 193 194 197 196 192 190 191 193 192 189 185 183 183 183 183 185 187 185 186 187 188 191 193 197 201 202 201 201 199 198 196 194 195 191 186 183 188 184 180 179 179 184 184 182 185 187 190 189 190 179 175 174 173 180 182 184
195 190 190 193 196 196 196 195 196 195 196 195 193 192 191 188 183 183 184 184 184 186 186 185 186 186 187 187 189 193 196 198 200 202 202 201 198 196 198 196 190 187 187 186 182 180 178 179 184 184 185 185 187 186 191 190 181 177 175 175 178 182 184
199 195 191 191 194 196 195 196 196 196 196 192 191 190 189 183 181 184 184 183 188 189 187 185 185 184 186 188 189 193 195 198 199 200 199 199 196 200 202 197 191 189 188 188 183 184 181 181 183 186 185 187 187 187 190 188 185 181 180 179 183 182 184
200 198 196 194 194 196 196 196 198 198 194 191 188 185 181 181 185 186 182 187 187 187 187 186 186 185 187 186 191 191 193 195 196 199 199 199 201 203 202 197 192 194 192 184 189 183 184 183 186 188 187 186 189 188 189 188 186 186 181 183 184 185 187
199 198 199 197 195 196 196 198 198 192 190 186 179 179 182 186 185 182 187 189 189 188 188 187 186 187 187 188 191 192 192 192 194 197 196 199 203 206 203 199 196 194 189 192 190 186 185 186 187 189 188 188 190 191 192 191 188 186 183 185 186 189 189
199 197 197 198 197 196 195 194 191 187 184 182 183 183 184 182 184 188 190 188 189 189 191 187 186 186 186 188 191 193 191 188 191 193 197 201 204 207 204 200 197 192 194 194 190 189 187 187 187 188 188 189 191 191 194 193 190 188 186 189 189 191 195
199 199 200 199 198 196 194 193 189 181 180 181 181 179 182 185 189 190 188 189 188 192 188 185 187 187 187 190 193 191 188 189 189 191 196 202 206 207 204 198 196 194 196 194 189 191 192 187 186 187 190 192 192 194 193 192 192 190 191 191 191 193 197
197 198 200 202 198 197 197 187 173 179 184 184 184 183 182 185 187 187 189 188 190 191 186 187 185 187 189 191 192 190 190 191 188 190 197 204 206 208 204 200 197 195 196 191 194 193 190 191 186 189 192 195 194 193 193 193 191 191 192 194 194 196 197
193 197 201 200 199 197 193 181 179 181 182 185 185 183 183 185 187 188 188 191 190 187 186 187 187 188 188 191 191 190 191 192 190 192 196 202 207 208 204 201 200 197 196 194 195 191 193 191 191 192 195 197 195 194 194 191 192 192 192 193 193 196 197
196 200 199 199 199 200 189 181 181 181 181 182 186 185 184 185 186 187 189 191 188 187 186 186 188 189 190 191 192 190 193 193 193 192 196 201 206 205 202 203 202 198 198 197 195 192 193 195 196 196 194 196 193 194 192 191 192 194 194 193 192 193 193
210 206 203 198 195 187 187 190 186 182 181 182 185 185 186 187 187 188 188 190 189 186 184 186 188 189 190 191 193 194 194 195 194 194 196 200 203 203 203 203 204 202 200 194 197 197 195 195 197 196 193 194 195 194 190 191 193 194 194 193 191 190 194
201 223 225 208 197 191 190 187 186 184 183 184 183 183 185 187 189 190 191 191 188 186 188 186 188 189 189 191 195 197 194 193 194 196 197 199 201 202 204 204 205 204 199 197 200 200 199 195 192 190 194 196 196 193 191 193 195 193 191 192 191 190 192
183 191 200 207 207 198 193 189 183 182 183 182 182 182 183 186 188 190 190 191 189 190 190 184 189 189 190 194 198 195 192 193 194 196 197 199 200 203 203 204 204 203 202 200 201 199 194 189 187 192 194 195 198 197 195 198 197 195 191 189 186 187 190
184 184 187 191 192 196 194 189 183 180 178 179 182 184 185 188 191 192 192 190 190 193 189 186 189 191 192 197 196 192 191 192 195 195 199 201 201 201 203 204 202 203 203 202 199 196 188 183 186 193 195 197 197 198 201 200 199 192 189 188 184 183 188
188 185 186 185 188 185 184 182 177 177 180 183 185 187 187 189 190 189 194 193 195 194 187 187 190 194 196 197 191 191 192 195 193 196 200 199 201 201 203 201 201 203 202 200 196 191 185 187 192 194 194 197 198 201 201 201 197 187 184 183 184 186 189
185 191 188 184 178 182 180 180 182 183 186 186 186 187 192 188 186 192 195 195 198 190 186 191 194 195 196 193 190 193 194 194 194 198 198 201 201 199 196 198 202 203 200 201 195 188 191 195 191 195 195 195 197 202 201 206 193 180 179 183 185 188 186
187 180 184 182 183 181 185 186 185 187 185 186 188 190 192 187 189 195 196 196 192 185 191 193 196 195 195 192 193 195 194 194 196 198 200 199 196 194 195 197 202 201 200 197 191 192 195 194 194 195 196 196 198 201 201 205 179 176 177 182 185 187 187
183 188 177 182 188 189 186 185 187 189 193 195 192 194 189 192 197 199 198 195 188 191 192 196 195 195 193 193 195 194 194 195 196 199 198 194 193 193 195 197 198 198 198 193 192 193 193 194 195 197 198 197 197 199 198 201 168 173 177 181 184 187 191
273 216 238 196 181 189 193 190 188 190 196 195 191 191 189 194 196 195 199 193 193 194 197 195 195 196 192 194 194 196 196 195 197 197 193 191 190 192 195 194 195 197 192 191 193 193 190 191 195 198 198 197 192 193 198 180 166 174 177 180 184 186 193
284 265 217 228 272 225 195 191 193 197 193 192 193 192 195 200 195 195 194 191 196 197 199 196 197 197 195 197 195 197 197 195 195 193 189 188 188 192 194 192 193 193 185 189 188 187 189 195 198 195 191 187 186 187 188 162 174 172 177 180 185 183 196
333 315 289 260 210 209 241 239 225 211 200 192 190 193 198 199 195 195 194 195 197 197 198 197 201 200 198 199 198 198 197 195 192 190 187 185 190 192 193 191 189 190 182 187 186 190 196 192 187 185 183 179 180 181 170 168 178 175 178 183 183 185 193
343 354 337 283 268 238 213 211 213 206 196 190 197 204 201 196 193 191 195 196 197 197 198 201 204 202 201 203 200 198 196 193 191 188 186 188 191 189 187 188 189 184 179 188 185 189 184 174 174 167 167 175 171 163 162 163 177 183 181 183 185 189 195
350 347 351 347 304 259 249 235 213 224 228 210 205 199 195 195 193 192 194 197 193 194 201 205 207 204 204 205 202 198 193 190 189 187 186 189 187 185 187 184 178 174 179 181 179 174 169 162 157 158 163 161 158 162 166 166 177 189 187 186 186 190 189
348 336 343 345 344 328 274 241 229 218 213 214 212 201 188 183 187 195 201 197 194 198 203 205 205 204 204 203 198 195 193 191 190 188 188 185 182 179 177 175 175 172 174 170 160 152 152 155 154 152 156 161 163 167 173 171 173 187 190 190 190 192 187
347 351 348 349 353 7 344 290 242 236 227 220 219 205 190 183 188 198 203 200 203 207 206 204 204 204 203 198 194 193 190 189 188 186 182 176 170 170 174 175 170 170 168 159 154 154 153 153 153 153 157 162 164 167 166 170 170 174 194 194 191 188 188
358 345 342 345 347 351 354 325 263 233 245 274 265 240 210 189 192 202 202 203 209 211 209 207 206 205 201 194 191 189 185 182 177 173 172 172 171 168 166 164 163 162 157 153 153 153 153 155 156 154 153 155 162 159 161 166 176 176 183 192 187 185 189
358 348 343 341 332 334 346 336 318 286 145 124 109 92 39 309 236 216 206 207 215 221 216 206 200 192 190 189 186 181 178 173 169 166 165 166 165 163 159 164 163 159 158 156 155 154 153 156 154 153 156 159 160 162 164 157 153 180 175 176 185 180 187
351 348 338 333 332 335 341 335 322 314 265 130 114 86 59 86 144 133 6 40 48 36 27 59 124 144 157 165 169 164 161 159 161 162 163 163 161 159 160 161 158 155 157 151 151 151 152 157 158 159 160 157 160 152 124 105 105 109 173 181 180 175 180
351 349 353 349 347 346 335 333 343 2 353 355 359 99 124 116 104 93 269 290 99 95 84 74 106 142 151 146 148 151 149 151 155 157 159 160 164 163 163 161 160 156 156 152 150 151 151 154 156 154 153 149 135 137 141 136 122 111 109 119 152 155 162
346 343 348 353 351 345 353 355 12 14 0 351 343 309 225 157 155 157 158 140 136 114 118 110 98 80 79 110 117 127 140 142 146 145 151 155 155 157 156 148 142 132 116 94 105 127 146 146 147 141 137 142 145 152 158 152 142 137 140 146 158 162 160
351 342 342 344 346 357 3 12 8 12 13 351 334 358 57 62 79 100 121 145 147 142 129 125 126 126 119 114 125 136 140 137 137 137 133 123 118 113 91 70 88 105 122 151 163 167 161 148 148 150 150 153 162 162 162 163 153 150 149 159 157 158 165
356 347 336 339 342 347 3 15 16 5 11 6 346 19 43 49 86 127 129 135 135 134 132 132 134 134 135 137 136 138 148 146 147 141 126 105 84 70 86 125 138 153 169 224 183 167 157 155 152 157 158 154 154 150 128 135 176 191 176 169 165 157 162
357 357 353 346 338 333 344 28 42 33 17 18 15 36 53 66 76 71 97 124 137 137 135 136 136 140 147 149 148 147 149 150 143 132 126 123 118 111 81 47 51 63 135 141 22 134 141 147 157 160 154 151 158 160 163 176 194 175 168 167 163 166 170
11 8 8 359 1 360 3 360 28 43 31 15 56 156 134 116 105 96 80 64 65 98 117 120 113 105 87 86 157 153 154 148 143 141 135 131 133 127 122 111 58 46 46 62 79 92 87 90 99 108 127 151 158 167 176 181 154 151 164 162 165 166 161
16 22 17 18 12 358 357 360 359 12 10 2 347 161 152 135 127 117 109 100 90 76 70 91 113 119 117 94 314 152 115 93 95 82 104 113 112 119 124 117 111 70 41 44 68 71 70 74 80 110 155 168 157 152 139 146 159 158 157 161 158 163 162